Terug naar catalogus

STARLINK-30309

ActiefCommunicatieVLEO
NORAD 57632·PAYLOAD·🇺🇸 United States

Gelanceerd Aug 17, 2023 vanaf Cape Canaveral Space Force Station

Loading…

Volgende Passages (komende 24 uur)

TLE

VersSource: CelesTrak SupGP

Epoch: Sep 14, 2026, 20:50 UTC

1 57632C 23122A   26257.86854167  .00001768  00000+0  64057-4 0  2574
2 57632  43.0017 104.2870 0001809 265.1517 234.9409 15.27571160    14

Volg STARLINK-30309 in realtime met AllMySat

Download on the App Store